This is the latest recevied weather packets stored in our database for station/object KE9DBJ-13. If no packets are shown the sender has not sent any weather packets the latest 10 day(s).
| Time | Temp. | Humidity | Pressure | Rain* | Wind** | Luminosity | Snow |
|---|---|---|---|---|---|---|---|
| 1778029203 | 15.56° C | 99% | 1006.5 hPa | 6.6 mm | - | - | - |
| 1778028603 | 15.56° C | 99% | 1006.8 hPa | 3.56 mm | - | - | - |
| 1778028003 | 15.56° C | 99% | 1006.2 hPa | 1.02 mm | - | - | - |
| 1778027402 | 15.56° C | 98% | 1006 hPa | 0 mm | - | - | - |
| 1778026802 | 15.56° C | 98% | 1005.8 hPa | 0 mm | - | - | - |
| 1778026202 | 16.11° C | 97% | 1005.8 hPa | 1.02 mm | - | - | - |
| 1778025602 | 16.11° C | 97% | 1006 hPa | 0.76 mm | - | - | - |
| 1778025002 | 16.11° C | 97% | 1006 hPa | 0.51 mm | - | - | - |
| 1778024402 | 16.11° C | 96% | 1005.9 hPa | 1.02 mm | - | - | - |
| 1778023802 | 16.11° C | 96% | 1006.1 hPa | 0 mm | - | - | - |
| 1778023202 | 16.11° C | 96% | 1006.1 hPa | 1.02 mm | - | - | - |
| 1778022603 | 16.67° C | 95% | 1006.2 hPa | 0.51 mm | - | - | - |
| 1778022003 | 16.67° C | 94% | 1006.5 hPa | 0 mm | - | - | - |
| 1778021403 | 16.67° C | 94% | 1006.7 hPa | 1.02 mm | - | - | - |
| 1778020803 | 17.22° C | 93% | 1006.6 hPa | 2.03 mm | - | - | - |
| 1778020203 | 17.22° C | 92% | 1006.7 hPa | 1.27 mm | - | - | - |
| 1778019603 | 17.78° C | 91% | 1006.7 hPa | 1.02 mm | - | - | - |
| 1778019003 | 17.78° C | 91% | 1006.8 hPa | 0 mm | - | - | - |
| 1778018402 | 18.33° C | 91% | 1006.8 hPa | 1.02 mm | - | - | - |
| 1778017802 | 18.33° C | 90% | 1007 hPa | 0.51 mm | - | - | - |
| 1778017202 | 18.33° C | 90% | 1007 hPa | 0 mm | - | - | - |
| 1778016602 | 18.33° C | 91% | 1007 hPa | 1.02 mm | - | - | - |
| 1778016002 | 17.78° C | 93% | 1007.1 hPa | 1.02 mm | - | - | - |
| 1778015402 | 17.22° C | 93% | 1007.4 hPa | 1.52 mm | - | - | - |
| 1778014802 | 17.22° C | 93% | 1007.5 hPa | 0.76 mm | - | - | - |
* Rain latest hour (hover to see other rain measurements)
** Current wind speed in m/s (hover to see current wind gust speed)